Zurück zum Katalog

STARLINK-11717

AktivKommunikationVLEO
NORAD 64126·PAYLOAD·🇺🇸 United States

Gestartet May 24, 2025 von Cape Canaveral Space Force Station

Loading…

Nächste Überflüge (nächste 24 Stunden)

TLE

AktuellSource: CelesTrak SupGP

Epoche: Sep 14, 2026, 21:41 UTC

1 64126C 25111D   26257.90395833  .00027313  00000+0  21220-3 0  2573
2 64126  43.0004 273.4943 0001559 256.1320 179.3122 15.70818800    17

Verfolge STARLINK-11717 in Echtzeit mit AllMySat

Download on the App Store